Por favor, tente outra pesquisa
| Símbolo | Bolsa | Moeda | ||
|---|---|---|---|---|
| SMTC | NASDAQ | USD | Tempo Real | |
| 1SMTC | Milão | EUR | Tempo Real | |
| SMTC | TradeGate | EUR | Atrasada |
| Data de Início | Usuário | Call | Abertura | Data de Término | Var. % |
|---|---|---|---|---|---|
| 04.09.2026 | Mario Salinardi | 143.65 | +2.95% | ||
| 04.09.2026 | ธนสร มั่นติ๊ด | 143.98 | +2.72% | ||
| 03.09.2026 | סיגלית אהרוני | 133.16 | -11.06% | ||
| 01.09.2026 | Tanmay Gupta | 129.69 | +14.03% | ||
| 31.08.2026 | roberts smith | 132.51 | +11.61% | ||
| 31.08.2026 | Muneeswsar Kasaram | 131.33 | 31.08.2026 @ 131.97 | +0.49% | |
| 28.08.2026 | timur suyeuov | 130.82 | +13.05% | ||
| 27.08.2026 | Brandon Zapata... | 142.57 | -3.73% | ||
| 27.08.2026 | Simone Gazzurelli | 145.90 | 31.08.2026 @ 131.97 | -9.55% | |
| 27.08.2026 | ZiBi BB | 144.00 | 31.08.2026 @ 131.97 | -8.35% | |
| 26.08.2026 | Peter Metzelaar | 139.57 | +5.96% | ||
| 26.08.2026 | Сергей Рус | 137.40 | -7.63% | ||
| 26.08.2026 | Rene Schneider | 138.40 | 31.08.2026 @ 131.44 | -5.03% | |
| 26.08.2026 | אריה קצנשטיין | 137.97 | +7.19% | ||
| 26.08.2026 | Edduin Salinas | 140.30 | 31.08.2026 @ 131.97 | -5.94% | |
| 26.08.2026 | Boubou C | 136.91 | -8.02% | ||
| 26.08.2026 | Preston Simpson | 132.01 | 31.08.2026 @ 131.97 | -0.03% | |
| 25.08.2026 | Azulay Ofir | 125.24 | +18.09% | ||
| 25.08.2026 | Viet Anh Vu | 125.26 | 31.08.2026 @ 131.97 | -5.36% | |
| 25.08.2026 | Steven Mainini | 126.91 | 31.08.2026 @ 131.97 | -3.99% | |
| 25.08.2026 | Luis Mascareña... | 126.78 | +16.65% | ||
| 25.08.2026 | remus mircea sabau | 122.89 | 31.08.2026 @ 131.97 | +7.39% | |
| 24.08.2026 | kriangkrai Krittayopa | 120.16 | +23.08% | ||
| 21.08.2026 | מיכאל לוונשטיין | 125.00 | 24.08.2026 @ 119.85 | -4.12% | |
| 17.08.2026 | Hafiz Usman | 153.54 | 24.08.2026 @ 119.85 | -21.94% | |
| 17.08.2026 | 154.75 | 24.08.2026 @ 119.85 | -22.55% | ||
| 14.08.2026 | יניב יהושע | 139.59 | 04.09.2026 @ 147.95 | +5.99% | |
| 13.08.2026 | Ertunç Akbulak | 132.67 | 04.09.2026 @ 147.95 | -11.52% | |
| 10.08.2026 | Michael Klamm | 136.30 | 17.08.2026 @ 154.50 | -13.35% | |
| 07.08.2026 | Waldemar Kozak | 138.04 | 28.08.2026 @ 131.15 | -4.99% | |
| 22.07.2026 | טובי יהוד | 138.85 | 14.08.2026 @ 140.40 | +1.12% | |
| 20.07.2026 | Boubou C | 128.87 | 29.07.2026 @ 104.39 | +19.00% | |
| 16.07.2026 | olivier wagnon | 131.41 | 07.08.2026 @ 139.42 | -6.10% | |
| 16.07.2026 | Michael Klamm | 131.43 | 20.07.2026 @ 129.28 | +1.64% | |
| 14.07.2026 | Reubler Alison COSTA... | 140.00 | 07.08.2026 @ 139.42 | +0.41% | |
| 08.07.2026 | Michael Klamm | 127.53 | 13.07.2026 @ 132.15 | -3.62% | |
| 01.07.2026 | Boubou C | 148.09 | 15.07.2026 @ 141.36 | -4.54% | |
| 24.06.2026 | Michael Klamm | 164.00 | 29.06.2026 @ 151.63 | +7.54% | |
| 22.06.2026 | Imran Khan | 172.89 | 17.07.2026 @ 124.86 | +27.78% | |
| 17.06.2026 | Дмитрий Польшин | 152.65 | 10.07.2026 @ 136.23 | +10.76% | |
| 15.06.2026 | Waldemar Kozak | 171.44 | 10.07.2026 @ 136.23 | -20.54% | |
| 15.06.2026 | Marcin Niemiec | 176.35 | 22.06.2026 @ 170.03 | -3.58% | |
| 29.05.2026 | paul samudio | 152.93 | 19.06.2026 @ 158.23 | +3.47% | |
| 29.05.2026 | Mario Gutierrez | 153.62 | 19.06.2026 @ 158.23 | +3.00% | |
| 28.05.2026 | Michael Klamm | 167.04 | 01.06.2026 @ 148.86 | +10.88% | |
| 28.05.2026 | eli שם משפחה | 168.50 | 19.06.2026 @ 158.23 | -6.09% | |
| 27.05.2026 | Max Vera | 155.74 | 19.06.2026 @ 158.23 | -1.60% | |
| 27.05.2026 | Alberto Zanetello | 155.78 | 19.06.2026 @ 158.23 | +1.57% | |
| 27.05.2026 | Andrea Csajtai | 165.50 | 01.06.2026 @ 148.86 | -10.05% | |
| 27.05.2026 | Piotr Czajkowski | 185.00 | 01.06.2026 @ 148.86 | -19.54% |
Quer mesmo bloquear %USER_NAME%?
Se o fizer, não poderá consultar as mensagens de %USER_NAME% e vice versa em Investing.com.
Adicionou %USER_NAME% com sucesso à sua Lista de Bloqueios
Uma vez que acabou de desbloquear esta pessoa, deve aguardar 48 horas antes de bloqueá-la novamente.
Diga-nos o que achou deste comentário
Obrigado!
Seu comentário foi enviado aos moderadores para revisão